Voltar ao catálogo

STARLINK-11744

AtivoComunicaçõesVLEO
NORAD 64380·PAYLOAD·🇺🇸 United States

Lançado Jun 13, 2025 de Cape Canaveral Space Force Station

Loading…

Próximas Passagens (próximas 24 horas)

TLE

AtualizadoSource: CelesTrak SupGP

Época: Sep 14, 2026, 20:49 UTC

1 64380C 25127L   26257.86784722  .00098989  00000+0  76861-3 0  2574
2 64380  43.0008  24.3641 0001728 276.1805  86.4488 15.70796454    12

Acompanhe STARLINK-11744 em tempo real com AllMySat

Download on the App Store